Location: Azul
(36.7830°S, 59.8500°W)
Time: 09:10:11
(UTC-03:00)

NOAA 19 - Pass Details

Date: 24 October 2021
Orbit: 840 x 861 km, 99.2° (Epoch: 07 December)

Event Time Altitude Azimuth Distance (km) Brightness Sun altitude
Rises 19:56:27 0° 159° (SSE) 3,472 8.4 -6.9°
Reaches altitude 10° 19:59:00 10° 152° (SSE) 2,528 7.6 -7.3°
Maximum altitude 20:04:18 42° 81° (E) 1,214 5.6 -8.3°
Drops below altitude 10° 20:09:33 10° 10° (N) 2,495 7.3 -9.3°
Sets 20:12:02 0° 3° (N) 3,421 8.1 -9.8°
